LBT844 DTTA-EGKK

Flight info

Callsign LBT844
Flight time N/A
Altitude 38000
Route TOBIB3C TOBIB UA725 OSMAR DCT PIRIX DCT INDUM DCT UPDUT DCT CORSI DCT OMEDA DCT MERLU DCT PIGOS DCT BARSO DCT OKTET DCT GIPNO DCT BULOL DCT IDAVO DCT BAGBI DCT SIZZA DCT LAULY DCT BRY DCT CLM DCT KOPOR DCT KESAX DCT KUNAV
Aircraft A20N/M-SDE2E3FGHIRWXY/LB1

Departure

Time N/A
Airport Tunis Carthage International Airport (DTTA)

Arrival

Time 2026-05-06 09:08
Airport London Gatwick Airport (EGKK)
Time Latitude Longitude Altitude Speed Heading
2026-05-06 08:43 50.27969 1.34928 20928 ft 462 kts 314°
2026-05-06 08:43 50.30206 1.31352 20342 ft 458 kts 314°
2026-05-06 08:43 50.32419 1.27809 20004 ft 454 kts 314°
2026-05-06 08:44 50.34624 1.24272 19944 ft 453 kts 314°
2026-05-06 08:44 50.36818 1.20747 19943 ft 452 kts 314°
2026-05-06 08:44 50.39008 1.17226 19943 ft 451 kts 314°
2026-05-06 08:44 50.41196 1.13703 19943 ft 450 kts 314°
2026-05-06 08:45 50.43378 1.10183 19943 ft 450 kts 314°
2026-05-06 08:45 50.45558 1.06663 19944 ft 450 kts 314°
2026-05-06 08:45 50.47744 1.03128 19943 ft 450 kts 314°
2026-05-06 08:45 50.49896 0.99641 19950 ft 450 kts 314°
2026-05-06 08:46 50.52078 0.96104 19953 ft 450 kts 314°
2026-05-06 08:46 50.54302 0.92656 19952 ft 450 kts 317°
2026-05-06 08:46 50.56684 0.89469 19793 ft 448 kts 321°
2026-05-06 08:46 50.59094 0.86402 19268 ft 444 kts 321°
2026-05-06 08:47 50.61497 0.83355 18587 ft 442 kts 321°
2026-05-06 08:47 50.63882 0.80332 17909 ft 439 kts 321°
2026-05-06 08:47 50.66253 0.77324 17237 ft 435 kts 321°
2026-05-06 08:47 50.68596 0.74347 16569 ft 430 kts 321°
2026-05-06 08:48 50.70914 0.71393 16115 ft 427 kts 321°
2026-05-06 08:48 50.73198 0.68473 15972 ft 411 kts 321°
2026-05-06 08:48 50.75329 0.65737 15905 ft 380 kts 321°
2026-05-06 08:48 50.77386 0.63088 15574 ft 360 kts 321°
2026-05-06 08:49 50.79232 0.60708 14972 ft 351 kts 321°
2026-05-06 08:49 50.81106 0.58289 14254 ft 345 kts 321°
2026-05-06 08:49 50.82949 0.55902 13541 ft 340 kts 321°
2026-05-06 08:49 50.84761 0.53553 12912 ft 333 kts 321°
2026-05-06 08:50 50.86533 0.51250 12288 ft 326 kts 321°
2026-05-06 08:50 50.88270 0.48986 11666 ft 320 kts 321°
2026-05-06 08:50 50.89969 0.46762 11052 ft 314 kts 321°
2026-05-06 08:50 50.91636 0.44563 10444 ft 309 kts 321°
2026-05-06 08:51 50.93250 0.42418 10070 ft 296 kts 321°
2026-05-06 08:51 50.94789 0.40357 9770 ft 284 kts 321°
2026-05-06 08:51 50.96281 0.38352 9374 ft 280 kts 321°
2026-05-06 08:51 50.97767 0.36350 8924 ft 279 kts 321°
2026-05-06 08:52 50.99238 0.34357 8475 ft 277 kts 321°
2026-05-06 08:52 51.00683 0.32394 8098 ft 275 kts 321°
2026-05-06 08:52 51.02111 0.30371 7976 ft 275 kts 314°
2026-05-06 08:52 51.03038 0.27730 7978 ft 278 kts 287°
2026-05-06 08:53 51.03258 0.24669 7984 ft 281 kts 273°
2026-05-06 08:53 51.03246 0.21555 7977 ft 282 kts 271°
2026-05-06 08:53 51.03204 0.18430 7978 ft 283 kts 271°
2026-05-06 08:53 51.03158 0.15312 7976 ft 283 kts 271°
2026-05-06 08:54 51.03111 0.12192 7982 ft 283 kts 271°
2026-05-06 08:54 51.03064 0.09062 7904 ft 283 kts 271°
2026-05-06 08:54 51.03016 0.05946 7633 ft 282 kts 271°
2026-05-06 08:54 51.02969 0.02834 7362 ft 281 kts 271°
2026-05-06 08:55 51.02922 -0.00230 7095 ft 280 kts 271°
2026-05-06 08:55 51.02878 -0.03316 6992 ft 278 kts 270°
2026-05-06 08:55 51.02859 -0.06388 6991 ft 279 kts 271°
2026-05-06 08:55 51.02851 -0.09468 6809 ft 279 kts 271°
2026-05-06 08:56 51.02845 -0.12551 6437 ft 278 kts 271°
2026-05-06 08:56 51.02835 -0.15612 6067 ft 276 kts 271°
2026-05-06 08:56 51.02822 -0.18649 5685 ft 274 kts 271°
2026-05-06 08:56 51.02805 -0.21667 5308 ft 273 kts 271°
2026-05-06 08:57 51.02784 -0.24673 4939 ft 272 kts 271°
2026-05-06 08:57 51.02761 -0.27682 4545 ft 273 kts 271°
2026-05-06 08:57 51.02731 -0.30695 4156 ft 273 kts 271°
2026-05-06 08:57 51.02698 -0.33688 3994 ft 270 kts 271°
2026-05-06 08:58 51.02660 -0.36654 3976 ft 263 kts 271°
2026-05-06 08:58 51.02619 -0.39473 3981 ft 248 kts 271°
2026-05-06 08:58 51.02577 -0.42165 3869 ft 242 kts 271°
2026-05-06 08:58 51.02535 -0.44859 3443 ft 247 kts 271°
2026-05-06 08:59 51.02492 -0.47606 3080 ft 249 kts 271°
2026-05-06 08:59 51.02443 -0.50312 2982 ft 240 kts 271°
2026-05-06 08:59 51.02393 -0.52967 2985 ft 241 kts 271°
2026-05-06 08:59 51.02345 -0.55631 2983 ft 242 kts 271°
2026-05-06 09:00 51.02297 -0.58312 2980 ft 243 kts 271°
2026-05-06 09:00 51.02251 -0.60989 2978 ft 242 kts 272°
2026-05-06 09:00 51.02581 -0.63548 2981 ft 235 kts 301°
2026-05-06 09:00 51.03653 -0.65384 2979 ft 224 kts 335°
2026-05-06 09:01 51.05119 -0.65954 2982 ft 216 kts
2026-05-06 09:01 51.06590 -0.65594 2996 ft 224 kts 17°
2026-05-06 09:01 51.08030 -0.64460 2987 ft 240 kts 41°
2026-05-06 09:01 51.08960 -0.62261 2991 ft 244 kts 68°
2026-05-06 09:02 51.09374 -0.59630 2984 ft 247 kts 78°
2026-05-06 09:02 51.09639 -0.57005 2991 ft 231 kts 78°
2026-05-06 09:02 51.09930 -0.54587 2990 ft 215 kts 76°
2026-05-06 09:02 51.10237 -0.52335 2995 ft 203 kts 75°
2026-05-06 09:03 51.10541 -0.50158 2995 ft 202 kts 75°
2026-05-06 09:03 51.10847 -0.47975 2996 ft 202 kts 75°
2026-05-06 09:03 51.11139 -0.45871 3013 ft 185 kts 75°
2026-05-06 09:03 51.11409 -0.43913 2996 ft 180 kts 75°
2026-05-06 09:04 51.11674 -0.41967 2912 ft 177 kts 76°
2026-05-06 09:04 51.11926 -0.40105 2651 ft 167 kts 78°
2026-05-06 09:04 51.12166 -0.38357 2431 ft 158 kts 80°
2026-05-06 09:04 51.12396 -0.36684 2212 ft 150 kts 82°
2026-05-06 09:05 51.12615 -0.35096 2007 ft 145 kts 82°
2026-05-06 09:05 51.12830 -0.33518 1838 ft 149 kts 82°
2026-05-06 09:05 51.13054 -0.31886 1648 ft 148 kts 80°
2026-05-06 09:05 51.13268 -0.30332 1442 ft 141 kts 79°
2026-05-06 09:06 51.13472 -0.28836 1252 ft 134 kts 74°
2026-05-06 09:06 51.13668 -0.27409 1074 ft 131 kts 74°
2026-05-06 09:06 51.13862 -0.25997 901 ft 131 kts 74°
2026-05-06 09:06 51.14056 -0.24575 731 ft 131 kts 74°
2026-05-06 09:07 51.14249 -0.23167 550 ft 130 kts 75°
2026-05-06 09:07 51.14442 -0.21762 380 ft 130 kts 75°
2026-05-06 09:07 51.14634 -0.20356 230 ft 129 kts 75°
2026-05-06 09:07 51.14796 -0.19178 211 ft 73 kts 78°
2026-05-06 09:08 51.14842 -0.18846 216 ft 3 kts 78°
2026-05-06 09:08 51.14870 -0.18689 206 ft 24 kts 63°
2026-05-06 09:08 51.14950 -0.18494 212 ft 17 kts 50°
2026-05-06 09:08 51.14985 -0.18424 212 ft 0 kts 51°
2026-05-06 09:10 51.14987 -0.18420 206 ft 4 kts 51°
2026-05-06 09:10 51.15046 -0.18302 215 ft 14 kts 51°
2026-05-06 09:10 51.15080 -0.18235 209 ft 0 kts 51°
2026-05-06 09:11 51.15093 -0.18209 206 ft 8 kts 52°
2026-05-06 09:11 51.15123 -0.18183 211 ft 0 kts 22°
2026-05-06 09:12 51.15125 -0.18182 217 ft 3 kts 23°
2026-05-06 09:12 51.15174 -0.18148 217 ft 11 kts 24°
2026-05-06 09:12 51.15215 -0.18056 211 ft 13 kts 76°
2026-05-06 09:13 51.15234 -0.17913 216 ft 13 kts 78°
2026-05-06 09:13 51.15253 -0.17771 210 ft 5 kts 78°
2026-05-06 09:13 51.15253 -0.17770 207 ft 0 kts 78°
2026-05-06 09:13 51.15253 -0.17768 207 ft 1 kts 78°
2026-05-06 09:14 51.15254 -0.17759 207 ft 1 kts 78°
2026-05-06 09:14 51.15266 -0.17686 215 ft 13 kts 75°
2026-05-06 09:14 51.15289 -0.17513 217 ft 17 kts 78°
2026-05-06 09:14 51.15304 -0.17338 216 ft 15 kts 83°
2026-05-06 09:15 51.15356 -0.17239 211 ft 11 kts 20°
2026-05-06 09:15 51.15398 -0.17155 215 ft 5 kts 69°
2026-05-06 09:15 51.15399 -0.17154 207 ft 0 kts 69°
2026-05-06 09:16 51.15399 -0.17153 207 ft 0 kts 69°
2026-05-06 09:16 51.15400 -0.17150 207 ft 0 kts 69°
2026-05-06 09:16 51.15401 -0.17144 214 ft 1 kts 69°
2026-05-06 09:16 51.15403 -0.17134 217 ft 1 kts 69°
2026-05-06 09:17 51.15406 -0.17122 214 ft 1 kts 69°
2026-05-06 09:17 51.15410 -0.17107 207 ft 2 kts 69°
2026-05-06 09:17 51.15414 -0.17089 207 ft 2 kts 69°
2026-05-06 09:17 51.15420 -0.17067 207 ft 2 kts 69°
2026-05-06 09:18 51.15426 -0.17043 207 ft 3 kts 69°
2026-05-06 09:18 51.15430 -0.17018 207 ft 1 kts 83°
2026-05-06 09:18 51.15431 -0.17001 207 ft 2 kts 83°
2026-05-06 09:18 51.15432 -0.16981 211 ft 2 kts 85°
2026-05-06 09:19 51.15433 -0.16959 207 ft 2 kts 85°
2026-05-06 09:19 51.15435 -0.16923 216 ft 6 kts 85°
2026-05-06 09:19 51.15472 -0.16895 207 ft 8 kts 352°
2026-05-06 09:19 51.15498 -0.16903 207 ft 0 kts 348°